Regional Weather Roundup
Issued by NWS

Home | Current Version | Previous Version | Text Only | Print | Product List | Glossary Off
Versions: 1 2 3 4 5 6 7 8 9 10 11 12 13 14 15 16 17 18 19 20 21 22 23 24 25 26 27 28 29 30 31 32 33 34 35 36 37 38 39 40 41 42 43 44 45 46 47 48 49 50

000
ASUS43 KMPX 230801
RWRMN
WEATHER ROUNDUP FOR MINNESOTA
NATIONAL WEATHER SERVICE TWIN CITIES/CHANHASSEN MN
300 AM CDT SAT AUG 23 2014


NOTE: "FAIR" INDICATES FEW OR NO CLOUDS BELOW 12,000 FEET WITH NO
SIGNIFICANT WEATHER AND/OR OBSTRUCTIONS TO VISIBILITY. N/A MEANS
CURRENT SKY AND/OR WEATHER CONDITIONS ARE NOT AVAILABLE.

MNZ060>063-068>070-230900-
   Twin Cities Metro

CITY           SKY/WX    TMP DP  RH WIND       PRES   REMARKS
TWIN CITIES    PTCLDY    69  67  93 N5        30.00R
ST PAUL        CLOUDY    70  68  93 NE8       30.00R
CRYSTAL        CLOUDY    69  66  90 NE6       29.99R
BLAINE         CLOUDY    70  70 100 NE5       30.01R
LAKEVILLE      MOCLDY    66  66 100 CALM      30.00S FOG
EDEN PRAIRIE   MOCLDY    69  67  93 CALM      29.99R
SOUTH ST PAUL  CLOUDY    70  67  92 CALM      30.00R
LAKE ELMO      CLOUDY    68  68 100 NE7       30.03R
$$
MNZ001>005-007-008-013>017-022>024-027-028-230900-
   Northwest Minnesota

CITY           SKY/WX    TMP DP  RH WIND       PRES   REMARKS
BEMIDJI        CLOUDY    65  65 100 NE3       30.05S
HALLOCK        CLOUDY    63  59  88 N10       30.09R
ROSEAU         CLOUDY    63  57  82 N8        30.09R
WARROAD        CLOUDY    63  59  88 NW5       30.09S FOG
THIEF RVR FALL CLOUDY    64  63  94 N12       30.06S VSB 3/4
CROOKSTON      CLOUDY    63  63 100 N7        30.06S
FOSSTON        CLOUDY    66  64  94 N6        30.05S
DETROIT LAKES  CLOUDY    68  66  94 CALM      30.05S
MOORHEAD       CLOUDY    66  66 100 N7        30.04F
PARK RAPIDS    FOG       66  66 100 CALM      30.05R VSB 1/4
MAHNOMEN       FOG       66  66 100 N5        30.03F VSB 1/2
$$
MNZ006-009>011-018-025>026-230900-
   North Central Minnesota

CITY           SKY/WX    TMP DP  RH WIND       PRES   REMARKS
BAUDETTE       CLOUDY    62  61  96 CALM      30.07F
FLAG ISLAND    CLOUDY    66  64  94 NW10      30.07F
INTL FALLS     MOCLDY    62  62 100 CALM      30.07R
WASKISH        CLOUDY    66  64  94 CALM      30.06S
BIG FORK       CLEAR     66  66 100 CALM      30.06S FOG
LONGVILLE      CLOUDY    66  64  94 SE3       30.05R FOG
GRAND RAPIDS   CLOUDY    64  61  88 CALM      30.06S
CRANE LAKE     CLOUDY    61  61 100 CALM      30.09S
ORR            CLOUDY    64  63  94 CALM      30.04F
COOK           CLOUDY    64  64 100 CALM      30.07S
WALKER         CLOUDY    64  64 100 CALM      30.04S FOG
$$
MNZ012-019>021-037-230900-
   Northeast Minnesota

CITY           SKY/WX    TMP DP  RH WIND       PRES   REMARKS
DULUTH         PTCLDY    61  58  90 NE6       30.05F
ELY            CLOUDY    64  63  94 CALM      30.08S
HIBBING        CLOUDY    65  62  90 S3        30.06S
EVELETH        CLOUDY    63  61  94 CALM      30.08R FOG
DULUTH HARBOR  CLEAR     63  61  94 NE6       30.05S
TWO HARBORS    CLOUDY    61  55  82 NE5       30.03F
SILVER BAY     MOCLDY    61  61 100 CALM      30.05S
GRAND MARAIS     N/A     62  60  93 CALM      30.06S
G MARAIS ARPRT CLOUDY    61  55  82 NE5       30.10S
$$
MNZ029>031-032-039>041-046>048-054>057-064-230900-
   West Central Minnesota

CITY           SKY/WX    TMP DP  RH WIND       PRES   REMARKS
FERGUS FALLS   CLOUDY    66  64  94 CALM      30.02F
WHEATON        FOG       64  63  94 N9        30.02F VSB 3/4
MORRIS         MOCLDY    70  68  94 N6        29.98F
ALEXANDRIA     MOCLDY    69  67  93 NE5       30.03F
ELBOW LAKE     CLOUDY    66  66  98 N6        30.01F
WADENA         CLOUDY    66  64  94 CALM      30.03F FOG
GLENWOOD       MOCLDY    68  66  94 NE6       30.01F
APPLETON       CLOUDY    72  66  83 NE3       29.97F
BENSON         CLOUDY    70  68  94 CALM      29.99F
ORTONVILLE     CLOUDY    68  64  88 N7        29.99S
MADISON        CLOUDY    72  70  94 NE3       29.98F FOG
WILLMAR        FAIR      72  66  83 E6        30.00F
$$
MNZ033>034-036-042>043-049>051-058-059-230900-
   Central Minnesota

CITY           SKY/WX    TMP DP  RH WIND       PRES   REMARKS
ST CLOUD       MOCLDY    67  64  90 NE7       30.00F
SAUK CENTRE    PTSUNNY   67  66  97 E7        30.01F
PAYNESVILLE    CLOUDY    65  65 100 N6        30.01F FOG
AITKIN         CLOUDY    64  59  82 CALM      30.04R HAZE
PINE RIVER     CLOUDY    66  66 100 SE3       30.08R
BRAINERD       CLOUDY    65  64  97 CALM      30.05R
STAPLES        CLOUDY    66  64  94 CALM      30.04R
LONG PRAIRIE   CLOUDY    64  64 100 NE5       30.02F FOG
LITTLE FALLS   MOCLDY    63  63 100 CALM      30.02F FOG
LITCHFIELD     MOCLDY    70  70 100 E5        30.01S
BUFFALO        MOCLDY    67  65  91 NE5       30.01S
MAPLE LAKE     CLOUDY    68  67  97 NE6       30.02S
$$
MNZ037-044-045-052-053-230900-
   East Central Minnesota

CITY           SKY/WX    TMP DP  RH WIND       PRES   REMARKS
PRINCETON      PTCLDY    66  64  94 N6        30.02S
MORA           CLOUDY    64  63  94 CALM      30.05S
CAMBRIDGE      CLOUDY    68  61  77 CALM      30.01S
RUSH CITY      CLOUDY    65  63  91 NE3       30.02F
MOOSE LAKE     CLOUDY    61  59  94 CALM      30.04R FOG
HINCKLEY       CLOUDY    63  63 100 NE3       30.04R
CLOQUET        CLEAR     61  59  94 N3        30.06R FOG
MCGREGOR       CLOUDY    63  61  94 E5        30.07R VSB 3/4
$$
MNZ071>073-080-081-089-090-097-098-230900-
   Southwest Minnesota

CITY           SKY/WX    TMP DP  RH WIND       PRES   REMARKS
MONTEVIDEO     CLOUDY    72  72 100 S6        29.99F
GRANITE FALLS  CLOUDY    71  69  96 E3        29.99F
CANBY          CLOUDY    70  69  96 NE5       29.99F
MARSHALL       CLOUDY    70  66  88 SE8         N/A
REDWOOD FALLS  CLOUDY    69  68  96 E6        29.98F
OLIVIA         CLOUDY    70  66  88 CALM      29.99S
PIPESTONE      CLOUDY    70  66  88 E8        29.99S
WINDOM         CLOUDY    68  66  94 E6        29.99F FOG
WORTHINGTON      N/A     70  68  94 E6        30.00S
JACKSON        CLOUDY    68  64  88 E6        29.99F FOG
TRACY          CLOUDY    70  68  95 SE5       30.00R
SLAYTON        CLOUDY    68  67  98 CALM      30.00F FOG
$$
MNZ065>067-074>077-082>085-091>093-230900-
   South Central Minnesota

CITY           SKY/WX    TMP DP  RH WIND       PRES   REMARKS
MANKATO        MOCLDY    70  64  83 CALM      29.99F
NEW ULM        CLOUDY    68  68 100 SE5       29.99F
ST JAMES       CLOUDY    68  66  94 NE3       29.99F FOG
FAIRMONT       CLOUDY    61  61 100 NE5       29.97F
GLENCOE        MOCLDY    68  65  90 CALM      30.00S
FARIBAULT      MOCLDY    70  63  78 NE3       30.00S HAZE
OWATONNA       MOCLDY    68  64  88 CALM      29.99F
WASECA         MOCLDY    64  61  88 E3        30.00F FOG
ALBERT LEA     MOCLDY    70  66  88 E7        29.98F FOG
$$
MNZ078>079-086>088-094>096-230900-
   Southeast Minnesota

CITY           SKY/WX    TMP DP  RH WIND       PRES   REMARKS
ROCHESTER      MOCLDY    68  66  93 N5        30.01R
RED WING       CLOUDY    70  68  94 CALM      29.99R
STANTON        MOCLDY    67  64  93 CALM      29.99R FOG
DODGE CENTER   FOG       66  66 100 CALM      30.00F VSB 1/4
WINONA         MOCLDY    70  68  94 CALM      29.98S
AUSTIN         MOCLDY    66  66 100 CALM      29.99F FOG
PRESTON        FOG       66  66 100 N5        30.00S VSB 1
$$
ABBREVIATIONS USED IN REMARKS
   TC - TEMPERATURES IN CELSIUS
  WCI - WIND CHILL INDEX
   HX - HEAT INDEX
  VSB - VISIBILITY
$$


USA.gov is the U.S. government's official web portal to all federal, state and local government web resources and services.